Time,TemperatureF,DewpointF,PressureIn,WindDirection,WindDirectionDegrees,WindSpeedMPH,WindSpeedGustMPH,Humidity,HourlyPrecipIn,Conditions,Clouds,dailyrainin,SolarRadiationWatts/m^2,SoftwareType,DateUTC
2013-07-31 00:02:00,54.8,52.2,30.05,SW,236,0.0,1.0,91,0.00,,,0.00,0,HR-IXPWINDi_r2_v1.2.,2013-07-31 07:02:00,
2013-07-31 00:07:00,54.9,52.3,30.05,SW,236,1.0,1.0,91,0.00,,,0.00,0,HR-IXPWINDi_r2_v1.2.,2013-07-31 07:07:00,
2013-07-31 00:12:00,54.9,52.3,30.05,SW,236,0.0,1.0,91,0.00,,,0.00,0,HR-IXPWINDi_r2_v1.2.,2013-07-31 07:12:00,
2013-07-31 00:17:00,54.6,52.0,30.05,SW,236,0.0,1.0,91,0.00,,,0.00,0,HR-IXPWINDi_r2_v1.2.,2013-07-31 07:17:00,
2013-07-31 00:23:00,54.4,51.8,30.05,SW,236,0.0,0.0,91,0.00,,,0.00,0,HR-IXPWINDi_r2_v1.2.,2013-07-31 07:23:00,
2013-07-31 00:28:00,54.2,51.6,30.05,SW,236,0.0,0.0,91,0.00,,,0.00,0,HR-IXPWINDi_r2_v1.2.,2013-07-31 07:28:00,
2013-07-31 00:33:00,54.1,51.5,30.05,SW,236,0.0,0.0,91,0.00,,,0.00,0,HR-IXPWINDi_r2_v1.2.,2013-07-31 07:33:00,
2013-07-31 00:38:00,53.9,51.3,30.05,SW,236,0.0,0.0,91,0.00,,,0.00,0,HR-IXPWINDi_r2_v1.2.,2013-07-31 07:38:00,
2013-07-31 00:43:00,53.8,51.5,30.05,SW,236,0.0,0.0,92,0.00,,,0.00,0,HR-IXPWINDi_r2_v1.2.,2013-07-31 07:43:00,
2013-07-31 00:48:00,53.9,51.6,30.05,SW,236,0.0,0.0,92,0.00,,,0.00,0,HR-IXPWINDi_r2_v1.2.,2013-07-31 07:48:00,
2013-07-31 00:54:00,53.9,51.6,30.05,SW,236,0.0,1.0,92,0.00,,,0.00,0,HR-IXPWINDi_r2_v1.2.,2013-07-31 07:54:00,
2013-07-31 00:59:00,53.9,51.6,30.05,SW,236,0.0,1.0,92,0.00,,,0.00,0,HR-IXPWINDi_r2_v1.2.,2013-07-31 07:59:00,
2013-07-31 01:04:00,53.8,51.5,30.05,SW,236,0.0,1.0,92,0.00,,,0.00,0,HR-IXPWINDi_r2_v1.2.,2013-07-31 08:04:00,
2013-07-31 01:09:00,53.8,51.5,30.05,SW,236,0.0,1.0,92,0.00,,,0.00,0,HR-IXPWINDi_r2_v1.2.,2013-07-31 08:09:00,
2013-07-31 01:15:00,53.7,51.4,30.04,SW,236,0.0,0.0,92,0.00,,,0.00,0,HR-IXPWINDi_r2_v1.2.,2013-07-31 08:15:00,
2013-07-31 01:20:00,53.6,51.3,30.04,SW,236,0.0,0.0,92,0.00,,,0.00,0,HR-IXPWINDi_r2_v1.2.,2013-07-31 08:20:00,
2013-07-31 01:25:00,53.5,51.2,30.04,SW,236,0.0,0.0,92,0.00,,,0.00,0,HR-IXPWINDi_r2_v1.2.,2013-07-31 08:25:00,
2013-07-31 01:30:00,53.2,50.9,30.04,SW,236,0.0,0.0,92,0.00,,,0.00,0,HR-IXPWINDi_r2_v1.2.,2013-07-31 08:30:00,
2013-07-31 01:35:00,53.1,50.8,30.04,SW,236,0.0,0.0,92,0.00,,,0.00,0,HR-IXPWINDi_r2_v1.2.,2013-07-31 08:35:00,
2013-07-31 01:41:00,53.1,50.8,30.04,SW,236,0.0,0.0,92,0.00,,,0.00,0,HR-IXPWINDi_r2_v1.2.,2013-07-31 08:41:00,
2013-07-31 01:46:00,52.7,50.4,30.04,SW,236,0.0,0.0,92,0.00,,,0.00,0,HR-IXPWINDi_r2_v1.2.,2013-07-31 08:46:00,
2013-07-31 01:53:00,52.7,50.7,30.04,SW,236,0.0,0.0,93,0.00,,,0.00,0,HR-IXPWINDi_r2_v1.2.,2013-07-31 08:53:00,
2013-07-31 01:58:00,52.8,50.8,30.04,SW,236,0.0,0.0,93,0.00,,,0.00,0,HR-IXPWINDi_r2_v1.2.,2013-07-31 08:58:00,
2013-07-31 02:03:00,52.9,50.9,30.03,SW,236,0.0,0.0,93,0.00,,,0.00,0,HR-IXPWINDi_r2_v1.2.,2013-07-31 09:03:00,
2013-07-31 02:08:00,53.0,51.0,30.03,SW,236,0.0,1.0,93,0.00,,,0.00,0,HR-IXPWINDi_r2_v1.2.,2013-07-31 09:08:00,
2013-07-31 02:14:00,53.0,51.0,30.03,SW,236,0.0,1.0,93,0.00,,,0.00,0,HR-IXPWINDi_r2_v1.2.,2013-07-31 09:14:00,
2013-07-31 02:19:00,53.2,51.2,30.03,SW,236,0.0,1.0,93,0.00,,,0.00,0,HR-IXPWINDi_r2_v1.2.,2013-07-31 09:19:00,
2013-07-31 02:24:00,53.2,51.2,30.03,SW,236,0.0,1.0,93,0.00,,,0.00,0,HR-IXPWINDi_r2_v1.2.,2013-07-31 09:24:00,
2013-07-31 02:29:00,53.0,51.0,30.03,SW,236,0.0,0.0,93,0.00,,,0.00,0,HR-IXPWINDi_r2_v1.2.,2013-07-31 09:29:00,
2013-07-31 02:34:00,53.0,51.0,30.03,SW,236,0.0,1.0,93,0.00,,,0.00,0,HR-IXPWINDi_r2_v1.2.,2013-07-31 09:34:00,
2013-07-31 02:40:00,52.9,50.9,30.03,SW,236,0.0,1.0,93,0.00,,,0.00,0,HR-IXPWINDi_r2_v1.2.,2013-07-31 09:40:00,
2013-07-31 02:45:00,52.8,50.8,30.03,SW,236,0.0,1.0,93,0.00,,,0.00,0,HR-IXPWINDi_r2_v1.2.,2013-07-31 09:45:00,
2013-07-31 02:50:00,52.7,50.7,30.03,SW,236,0.0,1.0,93,0.00,,,0.00,0,HR-IXPWINDi_r2_v1.2.,2013-07-31 09:50:00,
2013-07-31 02:55:00,52.4,50.4,30.03,SW,236,0.0,1.0,93,0.00,,,0.00,0,HR-IXPWINDi_r2_v1.2.,2013-07-31 09:55:00,
2013-07-31 03:00:00,52.2,50.2,30.03,SW,236,0.0,1.0,93,0.00,,,0.00,0,HR-IXPWINDi_r2_v1.2.,2013-07-31 10:00:00,
2013-07-31 03:06:00,52.2,50.2,30.03,SW,236,0.0,1.0,93,0.00,,,0.00,0,HR-IXPWINDi_r2_v1.2.,2013-07-31 10:06:00,
2013-07-31 03:11:00,52.3,50.6,30.04,SW,236,0.0,1.0,94,0.00,,,0.00,0,HR-IXPWINDi_r2_v1.2.,2013-07-31 10:11:00,
2013-07-31 03:16:00,52.3,50.3,30.04,SW,236,0.0,1.0,93,0.00,,,0.00,0,HR-IXPWINDi_r2_v1.2.,2013-07-31 10:16:00,
2013-07-31 03:21:00,52.3,50.6,30.04,SW,236,0.0,1.0,94,0.00,,,0.00,0,HR-IXPWINDi_r2_v1.2.,2013-07-31 10:21:00,
2013-07-31 03:26:00,52.1,50.1,30.04,SW,236,0.0,1.0,93,0.00,,,0.00,0,HR-IXPWINDi_r2_v1.2.,2013-07-31 10:26:00,
2013-07-31 03:31:00,51.9,49.9,30.04,SW,236,0.0,1.0,93,0.00,,,0.00,0,HR-IXPWINDi_r2_v1.2.,2013-07-31 10:31:00,
2013-07-31 03:37:00,51.8,49.8,30.04,SW,236,0.0,0.0,93,0.00,,,0.00,0,HR-IXPWINDi_r2_v1.2.,2013-07-31 10:37:00,
2013-07-31 03:42:00,51.7,49.7,30.04,SW,236,0.0,0.0,93,0.00,,,0.00,0,HR-IXPWINDi_r2_v1.2.,2013-07-31 10:42:00,
2013-07-31 03:47:00,51.5,49.8,30.04,SW,236,0.0,1.0,94,0.00,,,0.00,0,HR-IXPWINDi_r2_v1.2.,2013-07-31 10:47:00,
2013-07-31 03:52:00,51.6,49.9,30.04,SW,236,0.0,1.0,94,0.00,,,0.00,0,HR-IXPWINDi_r2_v1.2.,2013-07-31 10:52:00,
2013-07-31 03:57:00,51.7,50.0,30.04,SW,236,0.0,2.0,94,0.00,,,0.00,0,HR-IXPWINDi_r2_v1.2.,2013-07-31 10:57:00,
2013-07-31 04:02:00,51.7,50.0,30.04,SW,236,0.0,2.0,94,0.00,,,0.00,0,HR-IXPWINDi_r2_v1.2.,2013-07-31 11:02:00,
2013-07-31 04:08:00,51.4,49.7,30.04,SW,236,0.0,1.0,94,0.00,,,0.00,0,HR-IXPWINDi_r2_v1.2.,2013-07-31 11:08:00,
2013-07-31 04:13:00,51.2,49.5,30.04,SW,236,0.0,0.0,94,0.00,,,0.00,0,HR-IXPWINDi_r2_v1.2.,2013-07-31 11:13:00,
2013-07-31 04:18:00,51.3,49.6,30.04,SW,236,0.0,0.0,94,0.00,,,0.00,0,HR-IXPWINDi_r2_v1.2.,2013-07-31 11:18:00,
2013-07-31 04:23:00,51.3,49.6,30.04,SW,236,0.0,0.0,94,0.00,,,0.00,0,HR-IXPWINDi_r2_v1.2.,2013-07-31 11:23:00,
2013-07-31 04:28:00,51.4,49.7,30.04,SW,236,0.0,0.0,94,0.00,,,0.00,0,HR-IXPWINDi_r2_v1.2.,2013-07-31 11:28:00,
2013-07-31 04:33:00,51.5,49.8,30.04,SW,236,0.0,0.0,94,0.00,,,0.00,0,HR-IXPWINDi_r2_v1.2.,2013-07-31 11:33:00,
2013-07-31 04:39:00,51.8,50.1,30.04,SW,236,1.0,2.0,94,0.00,,,0.00,0,HR-IXPWINDi_r2_v1.2.,2013-07-31 11:39:00,
2013-07-31 04:44:00,52.1,50.4,30.04,SW,236,0.0,2.0,94,0.00,,,0.00,0,HR-IXPWINDi_r2_v1.2.,2013-07-31 11:44:00,
2013-07-31 04:49:00,52.2,50.5,30.04,SW,236,0.0,1.0,94,0.00,,,0.00,0,HR-IXPWINDi_r2_v1.2.,2013-07-31 11:49:00,
2013-07-31 04:54:00,52.4,50.7,30.04,SW,236,0.0,1.0,94,0.00,,,0.00,0,HR-IXPWINDi_r2_v1.2.,2013-07-31 11:54:00,
2013-07-31 04:59:00,52.7,51.0,30.04,SW,236,0.0,0.0,94,0.00,,,0.00,0,HR-IXPWINDi_r2_v1.2.,2013-07-31 11:59:00,
2013-07-31 05:04:00,52.9,51.2,30.04,SW,236,0.0,1.0,94,0.00,,,0.00,0,HR-IXPWINDi_r2_v1.2.,2013-07-31 12:04:00,
2013-07-31 05:10:00,53.1,51.4,30.04,SW,236,0.0,1.0,94,0.00,,,0.00,0,HR-IXPWINDi_r2_v1.2.,2013-07-31 12:10:00,
2013-07-31 05:15:00,53.4,51.6,30.04,SW,236,0.0,0.0,94,0.00,,,0.00,0,HR-IXPWINDi_r2_v1.2.,2013-07-31 12:15:00,
2013-07-31 05:20:00,53.5,51.7,30.05,SW,236,0.0,0.0,94,0.00,,,0.00,0,HR-IXPWINDi_r2_v1.2.,2013-07-31 12:20:00,
2013-07-31 05:26:00,53.6,51.8,30.05,SW,236,0.0,0.0,94,0.00,,,0.00,0,HR-IXPWINDi_r2_v1.2.,2013-07-31 12:26:00,
2013-07-31 05:31:00,53.8,52.0,30.05,SW,236,0.0,0.0,94,0.00,,,0.00,0,HR-IXPWINDi_r2_v1.2.,2013-07-31 12:31:00,
2013-07-31 05:36:00,53.9,51.9,30.05,SW,236,0.0,0.0,93,0.00,,,0.00,0,HR-IXPWINDi_r2_v1.2.,2013-07-31 12:36:00,
2013-07-31 05:41:00,54.0,52.0,30.05,SW,236,0.0,1.0,93,0.00,,,0.00,0,HR-IXPWINDi_r2_v1.2.,2013-07-31 12:41:00,
2013-07-31 05:47:00,54.0,52.0,30.05,SW,236,0.0,2.0,93,0.00,,,0.00,0,HR-IXPWINDi_r2_v1.2.,2013-07-31 12:47:00,
2013-07-31 05:52:00,54.0,52.0,30.05,SW,236,0.0,2.0,93,0.00,,,0.00,0,HR-IXPWINDi_r2_v1.2.,2013-07-31 12:52:00,
2013-07-31 05:57:00,54.2,52.2,30.05,SW,236,0.0,2.0,93,0.00,,,0.00,0,HR-IXPWINDi_r2_v1.2.,2013-07-31 12:57:00,
2013-07-31 06:02:00,54.3,52.3,30.06,SW,236,0.0,2.0,93,0.00,,,0.00,0,HR-IXPWINDi_r2_v1.2.,2013-07-31 13:02:00,
2013-07-31 06:07:00,54.5,52.5,30.06,WSW,238,0.0,2.0,93,0.00,,,0.00,0,HR-IXPWINDi_r2_v1.2.,2013-07-31 13:07:00,
2013-07-31 06:13:00,54.7,52.9,30.06,WSW,248,1.0,3.0,94,0.00,,,0.00,0,HR-IXPWINDi_r2_v1.2.,2013-07-31 13:13:00,
2013-07-31 06:18:00,54.8,53.0,30.06,West,270,2.0,3.0,94,0.00,,,0.00,0,HR-IXPWINDi_r2_v1.2.,2013-07-31 13:18:00,
2013-07-31 06:23:00,54.7,52.9,30.06,West,275,0.0,3.0,94,0.00,,,0.00,0,HR-IXPWINDi_r2_v1.2.,2013-07-31 13:23:00,
2013-07-31 06:28:00,54.9,53.1,30.06,West,276,0.0,3.0,94,0.00,,,0.00,5,HR-IXPWINDi_r2_v1.2.,2013-07-31 13:28:00,
2013-07-31 06:33:00,55.0,53.2,30.06,West,276,1.0,2.0,94,0.00,,,0.00,7,HR-IXPWINDi_r2_v1.2.,2013-07-31 13:33:00,
2013-07-31 06:38:00,55.1,53.3,30.06,West,276,0.0,2.0,94,0.00,,,0.00,9,HR-IXPWINDi_r2_v1.2.,2013-07-31 13:38:00,
2013-07-31 06:44:00,55.1,53.3,30.06,West,276,0.0,2.0,94,0.00,,,0.00,11,HR-IXPWINDi_r2_v1.2.,2013-07-31 13:44:00,
2013-07-31 06:49:00,55.1,53.0,30.06,West,276,1.0,2.0,93,0.00,,,0.00,12,HR-IXPWINDi_r2_v1.2.,2013-07-31 13:49:00,
2013-07-31 06:54:00,55.3,53.5,30.06,West,276,1.0,2.0,94,0.00,,,0.00,16,HR-IXPWINDi_r2_v1.2.,2013-07-31 13:54:00,
2013-07-31 06:59:00,55.4,53.6,30.06,West,276,1.0,2.0,94,0.00,,,0.00,18,HR-IXPWINDi_r2_v1.2.,2013-07-31 13:59:00,
2013-07-31 07:05:00,55.6,53.8,30.06,West,276,1.0,2.0,94,0.00,,,0.00,21,HR-IXPWINDi_r2_v1.2.,2013-07-31 14:05:00,
2013-07-31 07:10:00,55.7,53.9,30.06,West,276,1.0,2.0,94,0.00,,,0.00,23,HR-IXPWINDi_r2_v1.2.,2013-07-31 14:10:00,
2013-07-31 07:15:00,55.9,54.1,30.07,West,276,0.0,2.0,94,0.00,,,0.00,25,HR-IXPWINDi_r2_v1.2.,2013-07-31 14:15:00,
2013-07-31 07:20:00,56.1,54.3,30.07,West,276,0.0,1.0,94,0.00,,,0.00,26,HR-IXPWINDi_r2_v1.2.,2013-07-31 14:20:00,
2013-07-31 07:25:00,56.2,54.4,30.07,West,276,0.0,2.0,94,0.00,,,0.00,28,HR-IXPWINDi_r2_v1.2.,2013-07-31 14:25:00,
2013-07-31 07:30:00,56.3,54.5,30.07,West,276,0.0,2.0,94,0.00,,,0.00,30,HR-IXPWINDi_r2_v1.2.,2013-07-31 14:30:00,
2013-07-31 07:36:00,56.4,54.6,30.07,West,276,0.0,1.0,94,0.00,,,0.00,32,HR-IXPWINDi_r2_v1.2.,2013-07-31 14:36:00,
2013-07-31 07:41:00,56.5,54.7,30.07,West,276,0.0,0.0,94,0.00,,,0.00,33,HR-IXPWINDi_r2_v1.2.,2013-07-31 14:41:00,
2013-07-31 07:46:00,56.6,54.8,30.07,West,276,0.0,1.0,94,0.00,,,0.00,35,HR-IXPWINDi_r2_v1.2.,2013-07-31 14:46:00,
2013-07-31 07:51:00,56.7,54.9,30.07,West,276,0.0,1.0,94,0.00,,,0.00,35,HR-IXPWINDi_r2_v1.2.,2013-07-31 14:51:00,
2013-07-31 07:56:00,56.7,54.9,30.08,West,276,0.0,1.0,94,0.00,,,0.00,37,HR-IXPWINDi_r2_v1.2.,2013-07-31 14:56:00,
2013-07-31 08:01:00,56.8,55.0,30.08,West,276,0.0,0.0,94,0.00,,,0.00,39,HR-IXPWINDi_r2_v1.2.,2013-07-31 15:01:00,
2013-07-31 08:07:00,56.9,55.1,30.08,West,276,0.0,1.0,94,0.00,,,0.00,42,HR-IXPWINDi_r2_v1.2.,2013-07-31 15:07:00,
2013-07-31 08:12:00,57.0,55.2,30.08,West,276,0.0,2.0,94,0.00,,,0.00,47,HR-IXPWINDi_r2_v1.2.,2013-07-31 15:12:00,
2013-07-31 08:17:00,57.0,55.2,30.08,West,276,0.0,2.0,94,0.00,,,0.00,53,HR-IXPWINDi_r2_v1.2.,2013-07-31 15:17:00,
2013-07-31 08:22:00,56.9,55.1,30.08,West,276,0.0,1.0,94,0.00,,,0.00,58,HR-IXPWINDi_r2_v1.2.,2013-07-31 15:22:00,
2013-07-31 08:27:00,56.9,55.1,30.08,West,276,0.0,1.0,94,0.00,,,0.00,62,HR-IXPWINDi_r2_v1.2.,2013-07-31 15:27:00,
2013-07-31 08:32:00,57.2,55.4,30.08,West,276,0.0,2.0,94,0.00,,,0.00,62,HR-IXPWINDi_r2_v1.2.,2013-07-31 15:32:00,
2013-07-31 08:38:00,57.1,55.3,30.08,West,276,0.0,2.0,94,0.00,,,0.00,67,HR-IXPWINDi_r2_v1.2.,2013-07-31 15:38:00,
2013-07-31 08:43:00,57.0,55.2,30.08,West,279,0.0,2.0,94,0.00,,,0.00,74,HR-IXPWINDi_r2_v1.2.,2013-07-31 15:43:00,
2013-07-31 08:48:00,57.1,55.3,30.08,West,279,0.0,2.0,94,0.00,,,0.00,81,HR-IXPWINDi_r2_v1.2.,2013-07-31 15:48:00,
2013-07-31 08:53:00,57.1,55.3,30.08,West,279,0.0,2.0,94,0.00,,,0.00,86,HR-IXPWINDi_r2_v1.2.,2013-07-31 15:53:00,
2013-07-31 08:58:00,57.4,55.6,30.08,WNW,288,1.0,3.0,94,0.00,,,0.00,93,HR-IXPWINDi_r2_v1.2.,2013-07-31 15:58:00,
2013-07-31 09:04:00,57.6,55.8,30.08,WNW,288,0.0,3.0,94,0.00,,,0.00,97,HR-IXPWINDi_r2_v1.2.,2013-07-31 16:04:00,
2013-07-31 09:09:00,57.7,55.9,30.08,WNW,288,0.0,2.0,94,0.00,,,0.00,98,HR-IXPWINDi_r2_v1.2.,2013-07-31 16:09:00,
2013-07-31 09:14:00,58.2,56.4,30.08,WNW,284,0.0,2.0,94,0.00,,,0.00,100,HR-IXPWINDi_r2_v1.2.,2013-07-31 16:14:00,
2013-07-31 09:19:00,58.5,56.4,30.08,SSW,194,2.0,2.0,93,0.00,,,0.00,105,HR-IXPWINDi_r2_v1.2.,2013-07-31 16:19:00,
2013-07-31 09:24:00,58.3,55.9,30.08,South,184,2.0,5.0,92,0.00,,,0.00,114,HR-IXPWINDi_r2_v1.2.,2013-07-31 16:24:00,
2013-07-31 09:30:00,58.4,56.0,30.08,South,184,1.0,5.0,92,0.00,,,0.00,125,HR-IXPWINDi_r2_v1.2.,2013-07-31 16:30:00,
2013-07-31 09:35:00,59.0,56.6,30.08,South,184,1.0,2.0,92,0.00,,,0.00,142,HR-IXPWINDi_r2_v1.2.,2013-07-31 16:35:00,
2013-07-31 09:40:00,59.3,56.3,30.08,SE,125,0.0,2.0,90,0.00,,,0.00,155,HR-IXPWINDi_r2_v1.2.,2013-07-31 16:40:00,
2013-07-31 09:45:00,58.9,55.9,30.08,SW,236,0.0,2.0,90,0.00,,,0.00,158,HR-IXPWINDi_r2_v1.2.,2013-07-31 16:45:00,
2013-07-31 09:51:00,59.3,56.6,30.08,WSW,245,1.0,2.0,91,0.00,,,0.00,156,HR-IXPWINDi_r2_v1.2.,2013-07-31 16:51:00,
2013-07-31 09:56:00,59.7,56.7,30.08,WSW,245,2.0,3.0,90,0.00,,,0.00,162,HR-IXPWINDi_r2_v1.2.,2013-07-31 16:56:00,
2013-07-31 10:01:00,60.2,57.2,30.08,WSW,245,0.0,3.0,90,0.00,,,0.00,167,HR-IXPWINDi_r2_v1.2.,2013-07-31 17:01:00,
2013-07-31 10:06:00,60.9,57.3,30.08,South,171,2.0,3.0,88,0.00,,,0.00,169,HR-IXPWINDi_r2_v1.2.,2013-07-31 17:06:00,
2013-07-31 10:11:00,60.6,57.0,30.09,South,183,0.0,5.0,88,0.00,,,0.00,174,HR-IXPWINDi_r2_v1.2.,2013-07-31 17:11:00,
2013-07-31 10:16:00,61.0,57.0,30.09,SSW,203,1.0,5.0,87,0.00,,,0.00,188,HR-IXPWINDi_r2_v1.2.,2013-07-31 17:16:00,
2013-07-31 10:22:00,61.3,57.3,30.09,South,171,1.0,5.0,87,0.00,,,0.00,199,HR-IXPWINDi_r2_v1.2.,2013-07-31 17:22:00,
2013-07-31 10:27:00,61.0,57.0,30.08,South,171,0.0,4.0,87,0.00,,,0.00,216,HR-IXPWINDi_r2_v1.2.,2013-07-31 17:27:00,
2013-07-31 10:32:00,61.1,57.1,30.08,NNW,330,2.0,3.0,87,0.00,,,0.00,234,HR-IXPWINDi_r2_v1.2.,2013-07-31 17:32:00,
2013-07-31 10:37:00,61.5,56.9,30.08,WSW,251,0.0,4.0,85,0.00,,,0.00,267,HR-IXPWINDi_r2_v1.2.,2013-07-31 17:37:00,
2013-07-31 10:42:00,62.3,58.0,30.08,SSE,165,0.0,4.0,86,0.00,,,0.00,285,HR-IXPWINDi_r2_v1.2.,2013-07-31 17:42:00,
2013-07-31 10:47:00,62.4,57.8,30.08,South,180,0.0,5.0,85,0.00,,,0.00,316,HR-IXPWINDi_r2_v1.2.,2013-07-31 17:47:00,
2013-07-31 10:53:00,62.7,57.1,30.09,SSW,192,1.0,6.0,82,0.00,,,0.00,292,HR-IXPWINDi_r2_v1.2.,2013-07-31 17:53:00,
2013-07-31 10:58:00,63.5,58.5,30.08,South,188,1.0,6.0,84,0.00,,,0.00,343,HR-IXPWINDi_r2_v1.2.,2013-07-31 17:58:00,
2013-07-31 11:03:00,64.4,58.0,30.08,South,186,3.0,5.0,80,0.00,,,0.00,422,HR-IXPWINDi_r2_v1.2.,2013-07-31 18:03:00,
2013-07-31 11:08:00,65.5,59.1,30.08,East,96,1.0,5.0,80,0.00,,,0.00,441,HR-IXPWINDi_r2_v1.2.,2013-07-31 18:08:00,
2013-07-31 11:13:00,64.6,57.5,30.08,NE,48,1.0,6.0,78,0.00,,,0.00,432,HR-IXPWINDi_r2_v1.2.,2013-07-31 18:13:00,
2013-07-31 11:18:00,66.3,59.5,30.08,SSE,168,2.0,7.0,79,0.00,,,0.00,944,HR-IXPWINDi_r2_v1.2.,2013-07-31 18:18:00,
2013-07-31 11:23:00,68.1,59.8,30.08,SSE,161,1.0,7.0,75,0.00,,,0.00,842,HR-IXPWINDi_r2_v1.2.,2013-07-31 18:23:00,
2013-07-31 11:28:00,69.0,60.7,30.07,ESE,123,1.0,6.0,75,0.00,,,0.00,838,HR-IXPWINDi_r2_v1.2.,2013-07-31 18:28:00,
2013-07-31 11:34:00,71.0,60.7,30.07,ESE,115,2.0,5.0,70,0.00,,,0.00,851,HR-IXPWINDi_r2_v1.2.,2013-07-31 18:34:00,
2013-07-31 11:39:00,71.4,59.8,30.07,ENE,71,2.0,4.0,67,0.00,,,0.00,849,HR-IXPWINDi_r2_v1.2.,2013-07-31 18:39:00,
2013-07-31 11:44:00,72.5,60.9,30.06,ENE,73,0.0,4.0,67,0.00,,,0.00,860,HR-IXPWINDi_r2_v1.2.,2013-07-31 18:44:00,
2013-07-31 11:49:00,72.3,59.8,30.07,SSE,157,1.0,7.0,65,0.00,,,0.00,861,HR-IXPWINDi_r2_v1.2.,2013-07-31 18:49:00,
2013-07-31 11:54:00,72.8,61.1,30.07,South,169,4.0,7.0,67,0.00,,,0.00,875,HR-IXPWINDi_r2_v1.2.,2013-07-31 18:54:00,
2013-07-31 11:59:00,73.0,60.5,30.06,SSE,163,5.0,7.0,65,0.00,,,0.00,872,HR-IXPWINDi_r2_v1.2.,2013-07-31 18:59:00,
2013-07-31 12:04:00,72.7,59.3,30.06,South,175,3.0,8.0,63,0.00,,,0.00,886,HR-IXPWINDi_r2_v1.2.,2013-07-31 19:04:00,
2013-07-31 12:10:00,74.7,61.2,30.06,South,170,7.0,8.0,63,0.00,,,0.00,889,HR-IXPWINDi_r2_v1.2.,2013-07-31 19:10:00,
2013-07-31 12:15:00,75.5,61.1,30.06,SE,141,3.0,7.0,61,0.00,,,0.00,895,HR-IXPWINDi_r2_v1.2.,2013-07-31 19:15:00,
2013-07-31 12:20:00,74.0,59.6,30.05,South,186,2.0,9.0,61,0.00,,,0.00,898,HR-IXPWINDi_r2_v1.2.,2013-07-31 19:20:00,
2013-07-31 12:25:00,74.8,61.3,30.05,ESE,122,2.0,9.0,63,0.00,,,0.00,900,HR-IXPWINDi_r2_v1.2.,2013-07-31 19:25:00,
2013-07-31 12:30:00,76.0,60.6,30.05,South,184,0.0,7.0,59,0.00,,,0.00,907,HR-IXPWINDi_r2_v1.2.,2013-07-31 19:30:00,
2013-07-31 12:36:00,76.0,61.1,30.05,SSE,163,3.0,9.0,60,0.00,,,0.00,902,HR-IXPWINDi_r2_v1.2.,2013-07-31 19:36:00,
2013-07-31 12:41:00,76.2,61.2,30.04,SSE,162,5.0,9.0,60,0.00,,,0.00,900,HR-IXPWINDi_r2_v1.2.,2013-07-31 19:41:00,
2013-07-31 12:46:00,76.0,61.1,30.04,WNW,284,2.0,7.0,60,0.00,,,0.00,911,HR-IXPWINDi_r2_v1.2.,2013-07-31 19:46:00,
2013-07-31 12:51:00,75.3,59.9,30.04,SSE,159,2.0,8.0,59,0.00,,,0.00,907,HR-IXPWINDi_r2_v1.2.,2013-07-31 19:51:00,
2013-07-31 12:57:00,76.1,60.2,30.04,SSW,200,6.0,8.0,58,0.00,,,0.00,905,HR-IXPWINDi_r2_v1.2.,2013-07-31 19:57:00,
2013-07-31 13:02:00,76.4,61.4,30.04,WSW,237,2.0,8.0,60,0.00,,,0.00,907,HR-IXPWINDi_r2_v1.2.,2013-07-31 20:02:00,
2013-07-31 13:07:00,77.4,60.4,30.04,South,187,5.0,7.0,56,0.00,,,0.00,904,HR-IXPWINDi_r2_v1.2.,2013-07-31 20:07:00,
2013-07-31 13:12:00,77.8,61.8,30.04,ESE,114,2.0,7.0,58,0.00,,,0.00,907,HR-IXPWINDi_r2_v1.2.,2013-07-31 20:12:00,
2013-07-31 13:17:00,77.5,60.0,30.04,South,181,4.0,7.0,55,0.00,,,0.00,902,HR-IXPWINDi_r2_v1.2.,2013-07-31 20:17:00,
2013-07-31 13:22:00,75.4,60.0,30.03,South,175,6.0,9.0,59,0.00,,,0.00,900,HR-IXPWINDi_r2_v1.2.,2013-07-31 20:22:00,
2013-07-31 13:28:00,75.5,60.6,30.03,SSE,161,1.0,11.0,60,0.00,,,0.00,900,HR-IXPWINDi_r2_v1.2.,2013-07-31 20:28:00,
2013-07-31 13:33:00,76.6,59.7,30.03,South,188,4.0,11.0,56,0.00,,,0.00,898,HR-IXPWINDi_r2_v1.2.,2013-07-31 20:33:00,
2013-07-31 13:38:00,75.8,60.9,30.03,South,174,7.0,9.0,60,0.00,,,0.00,895,HR-IXPWINDi_r2_v1.2.,2013-07-31 20:38:00,
2013-07-31 13:43:00,75.1,60.7,30.03,SSE,166,4.0,11.0,61,0.00,,,0.00,891,HR-IXPWINDi_r2_v1.2.,2013-07-31 20:43:00,
2013-07-31 13:48:00,76.7,61.2,30.02,SSE,165,1.0,11.0,59,0.00,,,0.00,889,HR-IXPWINDi_r2_v1.2.,2013-07-31 20:48:00,
2013-07-31 13:53:00,76.7,60.8,30.03,SSW,193,7.0,13.0,58,0.00,,,0.00,886,HR-IXPWINDi_r2_v1.2.,2013-07-31 20:53:00,
2013-07-31 13:59:00,75.5,59.6,30.02,South,175,5.0,13.0,58,0.00,,,0.00,881,HR-IXPWINDi_r2_v1.2.,2013-07-31 20:59:00,
2013-07-31 14:04:00,75.5,60.1,30.02,South,172,6.0,9.0,59,0.00,,,0.00,870,HR-IXPWINDi_r2_v1.2.,2013-07-31 21:04:00,
2013-07-31 14:09:00,75.5,60.1,30.02,South,178,2.0,8.0,59,0.00,,,0.00,870,HR-IXPWINDi_r2_v1.2.,2013-07-31 21:09:00,
2013-07-31 14:14:00,77.3,60.3,30.02,ESE,111,1.0,8.0,56,0.00,,,0.00,863,HR-IXPWINDi_r2_v1.2.,2013-07-31 21:14:00,
2013-07-31 14:20:00,77.1,61.1,30.02,ESE,110,1.0,9.0,58,0.00,,,0.00,858,HR-IXPWINDi_r2_v1.2.,2013-07-31 21:20:00,
2013-07-31 14:25:00,78.5,60.9,30.01,SSW,198,1.0,9.0,55,0.00,,,0.00,853,HR-IXPWINDi_r2_v1.2.,2013-07-31 21:25:00,
2013-07-31 14:30:00,77.2,60.2,30.01,East,80,2.0,12.0,56,0.00,,,0.00,844,HR-IXPWINDi_r2_v1.2.,2013-07-31 21:30:00,
2013-07-31 14:35:00,76.8,59.9,30.01,SSE,157,1.0,12.0,56,0.00,,,0.00,833,HR-IXPWINDi_r2_v1.2.,2013-07-31 21:35:00,
2013-07-31 14:41:00,76.9,58.9,30.01,South,179,5.0,11.0,54,0.00,,,0.00,826,HR-IXPWINDi_r2_v1.2.,2013-07-31 21:41:00,
2013-07-31 14:46:00,76.1,60.7,30.01,South,176,8.0,10.0,59,0.00,,,0.00,821,HR-IXPWINDi_r2_v1.2.,2013-07-31 21:46:00,
2013-07-31 14:52:00,77.8,60.3,30.01,South,178,3.0,9.0,55,0.00,,,0.00,812,HR-IXPWINDi_r2_v1.2.,2013-07-31 21:52:00,
2013-07-31 14:57:00,77.9,60.9,30.01,South,185,9.0,10.0,56,0.00,,,0.00,798,HR-IXPWINDi_r2_v1.2.,2013-07-31 21:57:00,
2013-07-31 15:02:00,76.7,60.8,30.00,South,182,3.0,10.0,58,0.00,,,0.00,793,HR-IXPWINDi_r2_v1.2.,2013-07-31 22:02:00,
2013-07-31 15:07:00,76.5,60.6,30.00,SE,138,2.0,10.0,58,0.00,,,0.00,782,HR-IXPWINDi_r2_v1.2.,2013-07-31 22:07:00,
2013-07-31 15:12:00,77.2,60.2,30.00,SSE,165,4.0,8.0,56,0.00,,,0.00,772,HR-IXPWINDi_r2_v1.2.,2013-07-31 22:12:00,
2013-07-31 15:18:00,77.1,60.6,30.00,SE,145,3.0,8.0,57,0.00,,,0.00,759,HR-IXPWINDi_r2_v1.2.,2013-07-31 22:18:00,
2013-07-31 15:23:00,76.8,59.9,30.00,South,189,2.0,9.0,56,0.00,,,0.00,749,HR-IXPWINDi_r2_v1.2.,2013-07-31 22:23:00,
2013-07-31 15:28:00,76.7,60.3,30.00,SSE,150,4.0,11.0,57,0.00,,,0.00,740,HR-IXPWINDi_r2_v1.2.,2013-07-31 22:28:00,
2013-07-31 15:34:00,76.5,59.1,30.00,South,182,1.0,11.0,55,0.00,,,0.00,724,HR-IXPWINDi_r2_v1.2.,2013-07-31 22:34:00,
2013-07-31 15:39:00,76.1,59.7,30.00,SSW,203,3.0,9.0,57,0.00,,,0.00,714,HR-IXPWINDi_r2_v1.2.,2013-07-31 22:39:00,
2013-07-31 15:44:00,75.6,60.2,29.99,South,171,2.0,8.0,59,0.00,,,0.00,700,HR-IXPWINDi_r2_v1.2.,2013-07-31 22:44:00,
2013-07-31 15:49:00,76.2,59.3,29.99,SSW,205,5.0,8.0,56,0.00,,,0.00,686,HR-IXPWINDi_r2_v1.2.,2013-07-31 22:49:00,
2013-07-31 15:54:00,74.3,59.5,29.99,SSW,198,5.0,8.0,60,0.00,,,0.00,673,HR-IXPWINDi_r2_v1.2.,2013-07-31 22:54:00,
2013-07-31 16:00:00,73.0,59.2,29.99,South,179,6.0,8.0,62,0.00,,,0.00,661,HR-IXPWINDi_r2_v1.2.,2013-07-31 23:00:00,
2013-07-31 16:05:00,73.8,59.0,29.99,South,176,2.0,8.0,60,0.00,,,0.00,645,HR-IXPWINDi_r2_v1.2.,2013-07-31 23:05:00,
2013-07-31 16:10:00,73.8,59.5,29.99,South,173,2.0,10.0,61,0.00,,,0.00,631,HR-IXPWINDi_r2_v1.2.,2013-07-31 23:10:00,
2013-07-31 16:15:00,75.4,60.0,29.99,ESE,113,5.0,10.0,59,0.00,,,0.00,617,HR-IXPWINDi_r2_v1.2.,2013-07-31 23:15:00,
2013-07-31 16:20:00,74.2,59.8,29.99,SSW,198,5.0,10.0,61,0.00,,,0.00,601,HR-IXPWINDi_r2_v1.2.,2013-07-31 23:20:00,
2013-07-31 16:25:00,73.7,59.4,29.99,SSE,161,3.0,9.0,61,0.00,,,0.00,585,HR-IXPWINDi_r2_v1.2.,2013-07-31 23:25:00,
2013-07-31 16:30:00,73.3,59.4,29.98,SSE,155,3.0,9.0,62,0.00,,,0.00,570,HR-IXPWINDi_r2_v1.2.,2013-07-31 23:30:00,
2013-07-31 16:35:00,73.6,59.3,29.99,South,182,7.0,8.0,61,0.00,,,0.00,557,HR-IXPWINDi_r2_v1.2.,2013-07-31 23:35:00,
2013-07-31 16:40:00,73.1,59.3,29.98,SSW,198,5.0,10.0,62,0.00,,,0.00,541,HR-IXPWINDi_r2_v1.2.,2013-07-31 23:40:00,
2013-07-31 16:46:00,72.6,59.2,29.98,SW,235,4.0,10.0,63,0.00,,,0.00,524,HR-IXPWINDi_r2_v1.2.,2013-07-31 23:46:00,
2013-07-31 16:51:00,73.1,60.1,29.98,SSE,153,1.0,9.0,64,0.00,,,0.00,508,HR-IXPWINDi_r2_v1.2.,2013-07-31 23:51:00,
2013-07-31 16:56:00,73.4,60.0,29.98,South,169,3.0,8.0,63,0.00,,,0.00,492,HR-IXPWINDi_r2_v1.2.,2013-07-31 23:56:00,
2013-07-31 17:02:00,73.4,59.5,29.98,SW,216,3.0,8.0,62,0.00,,,0.00,475,HR-IXPWINDi_r2_v1.2.,2013-08-01 00:02:00,
2013-07-31 17:07:00,72.2,59.7,29.98,SSW,197,3.0,8.0,65,0.00,,,0.00,455,HR-IXPWINDi_r2_v1.2.,2013-08-01 00:07:00,
2013-07-31 17:12:00,72.5,59.6,29.98,SSE,166,2.0,8.0,64,0.00,,,0.00,439,HR-IXPWINDi_r2_v1.2.,2013-08-01 00:12:00,
2013-07-31 17:17:00,72.0,59.1,29.98,SSW,195,2.0,8.0,64,0.00,,,0.00,425,HR-IXPWINDi_r2_v1.2.,2013-08-01 00:17:00,
2013-07-31 17:22:00,70.7,58.7,29.98,South,180,4.0,9.0,66,0.00,,,0.00,411,HR-IXPWINDi_r2_v1.2.,2013-08-01 00:22:00,
2013-07-31 17:27:00,70.9,59.3,29.98,SSE,149,3.0,9.0,67,0.00,,,0.00,392,HR-IXPWINDi_r2_v1.2.,2013-08-01 00:27:00,
2013-07-31 17:33:00,70.1,58.2,29.98,SSW,193,4.0,11.0,66,0.00,,,0.00,374,HR-IXPWINDi_r2_v1.2.,2013-08-01 00:33:00,
2013-07-31 17:38:00,69.1,58.4,29.98,SSE,159,5.0,11.0,69,0.00,,,0.00,357,HR-IXPWINDi_r2_v1.2.,2013-08-01 00:38:00,
2013-07-31 17:43:00,68.5,58.3,29.97,South,173,3.0,8.0,70,0.00,,,0.00,341,HR-IXPWINDi_r2_v1.2.,2013-08-01 00:43:00,
2013-07-31 17:48:00,69.2,58.9,29.97,South,186,2.0,8.0,70,0.00,,,0.00,325,HR-IXPWINDi_r2_v1.2.,2013-08-01 00:48:00,
2013-07-31 17:53:00,69.6,58.9,29.97,SW,229,1.0,10.0,69,0.00,,,0.00,309,HR-IXPWINDi_r2_v1.2.,2013-08-01 00:53:00,
2013-07-31 17:58:00,68.8,58.6,29.97,SSE,165,1.0,10.0,70,0.00,,,0.00,292,HR-IXPWINDi_r2_v1.2.,2013-08-01 00:58:00,
2013-07-31 18:04:00,68.3,58.5,29.97,WSW,240,3.0,5.0,71,0.00,,,0.00,276,HR-IXPWINDi_r2_v1.2.,2013-08-01 01:04:00,
2013-07-31 18:09:00,68.1,58.7,29.97,SSE,163,3.0,6.0,72,0.00,,,0.00,258,HR-IXPWINDi_r2_v1.2.,2013-08-01 01:09:00,
2013-07-31 18:14:00,68.6,58.0,29.97,South,173,1.0,7.0,69,0.00,,,0.00,237,HR-IXPWINDi_r2_v1.2.,2013-08-01 01:14:00,
2013-07-31 18:19:00,67.7,58.3,29.97,SE,146,1.0,7.0,72,0.00,,,0.00,225,HR-IXPWINDi_r2_v1.2.,2013-08-01 01:19:00,
2013-07-31 18:24:00,67.8,58.0,29.97,SSE,164,2.0,7.0,71,0.00,,,0.00,207,HR-IXPWINDi_r2_v1.2.,2013-08-01 01:24:00,
2013-07-31 18:29:00,66.4,57.4,29.97,West,270,0.0,7.0,73,0.00,,,0.00,40,HR-IXPWINDi_r2_v1.2.,2013-08-01 01:29:00,
2013-07-31 18:34:00,65.3,57.1,29.97,South,173,3.0,6.0,75,0.00,,,0.00,32,HR-IXPWINDi_r2_v1.2.,2013-08-01 01:34:00,
2013-07-31 18:40:00,64.5,57.1,29.97,SSW,196,4.0,5.0,77,0.00,,,0.00,28,HR-IXPWINDi_r2_v1.2.,2013-08-01 01:40:00,
2013-07-31 18:45:00,64.2,57.1,29.97,South,182,3.0,5.0,78,0.00,,,0.00,26,HR-IXPWINDi_r2_v1.2.,2013-08-01 01:45:00,
2013-07-31 18:50:00,63.8,56.7,29.97,SSW,198,0.0,5.0,78,0.00,,,0.00,26,HR-IXPWINDi_r2_v1.2.,2013-08-01 01:50:00,
2013-07-31 18:55:00,63.4,56.7,29.97,SSE,154,1.0,5.0,79,0.00,,,0.00,25,HR-IXPWINDi_r2_v1.2.,2013-08-01 01:55:00,
2013-07-31 19:00:00,63.2,56.9,29.97,South,179,2.0,4.0,80,0.00,,,0.00,23,HR-IXPWINDi_r2_v1.2.,2013-08-01 02:00:00,
2013-07-31 19:05:00,63.0,56.7,29.97,South,183,3.0,4.0,80,0.00,,,0.00,21,HR-IXPWINDi_r2_v1.2.,2013-08-01 02:05:00,
2013-07-31 19:10:00,62.7,56.7,29.97,SSW,193,3.0,6.0,81,0.00,,,0.00,19,HR-IXPWINDi_r2_v1.2.,2013-08-01 02:10:00,
2013-07-31 19:16:00,62.4,56.8,29.97,SSE,166,0.0,6.0,82,0.00,,,0.00,18,HR-IXPWINDi_r2_v1.2.,2013-08-01 02:16:00,
2013-07-31 19:21:00,62.1,56.5,29.97,South,174,0.0,6.0,82,0.00,,,0.00,16,HR-IXPWINDi_r2_v1.2.,2013-08-01 02:21:00,
2013-07-31 19:26:00,61.8,56.5,29.97,South,188,4.0,7.0,83,0.00,,,0.00,14,HR-IXPWINDi_r2_v1.2.,2013-08-01 02:26:00,
2013-07-31 19:31:00,61.6,56.3,29.97,SW,228,4.0,7.0,83,0.00,,,0.00,12,HR-IXPWINDi_r2_v1.2.,2013-08-01 02:31:00,
2013-07-31 19:37:00,61.2,56.3,29.97,West,264,0.0,6.0,84,0.00,,,0.00,11,HR-IXPWINDi_r2_v1.2.,2013-08-01 02:37:00,
2013-07-31 19:42:00,60.9,56.0,29.97,WSW,257,5.0,6.0,84,0.00,,,0.00,7,HR-IXPWINDi_r2_v1.2.,2013-08-01 02:42:00,
2013-07-31 19:47:00,60.7,56.1,29.97,WSW,257,3.0,6.0,85,0.00,,,0.00,5,HR-IXPWINDi_r2_v1.2.,2013-08-01 02:47:00,
2013-07-31 19:53:00,60.4,55.8,29.97,SSW,200,1.0,6.0,85,0.00,,,0.00,5,HR-IXPWINDi_r2_v1.2.,2013-08-01 02:53:00,
2013-07-31 19:58:00,60.2,55.9,29.97,South,169,2.0,6.0,86,0.00,,,0.00,0,HR-IXPWINDi_r2_v1.2.,2013-08-01 02:58:00,
2013-07-31 20:03:00,60.0,55.7,29.97,South,182,1.0,5.0,86,0.00,,,0.00,0,HR-IXPWINDi_r2_v1.2.,2013-08-01 03:03:00,
2013-07-31 20:08:00,59.9,56.0,29.97,South,190,2.0,5.0,87,0.00,,,0.00,0,HR-IXPWINDi_r2_v1.2.,2013-08-01 03:08:00,
2013-07-31 20:13:00,59.7,55.8,29.97,South,184,4.0,6.0,87,0.00,,,0.00,0,HR-IXPWINDi_r2_v1.2.,2013-08-01 03:13:00,
2013-07-31 20:18:00,59.5,55.6,29.97,SSE,151,0.0,6.0,87,0.00,,,0.00,0,HR-IXPWINDi_r2_v1.2.,2013-08-01 03:18:00,
2013-07-31 20:24:00,59.3,55.7,29.98,SW,216,2.0,5.0,88,0.00,,,0.00,0,HR-IXPWINDi_r2_v1.2.,2013-08-01 03:24:00,
2013-07-31 20:29:00,59.1,55.5,29.98,SW,227,1.0,5.0,88,0.00,,,0.00,0,HR-IXPWINDi_r2_v1.2.,2013-08-01 03:29:00,
2013-07-31 20:34:00,58.9,55.6,29.98,WSW,241,2.0,4.0,89,0.00,,,0.00,0,HR-IXPWINDi_r2_v1.2.,2013-08-01 03:34:00,
2013-07-31 20:39:00,58.7,55.4,29.98,WSW,241,0.0,3.0,89,0.00,,,0.00,0,HR-IXPWINDi_r2_v1.2.,2013-08-01 03:39:00,
2013-07-31 20:45:00,58.6,55.3,29.98,WSW,242,3.0,3.0,89,0.00,,,0.00,0,HR-IXPWINDi_r2_v1.2.,2013-08-01 03:45:00,
2013-07-31 20:50:00,58.5,55.5,29.98,WSW,242,0.0,3.0,90,0.00,,,0.00,0,HR-IXPWINDi_r2_v1.2.,2013-08-01 03:50:00,
2013-07-31 20:55:00,58.3,55.3,29.98,WSW,242,1.0,3.0,90,0.00,,,0.00,0,HR-IXPWINDi_r2_v1.2.,2013-08-01 03:55:00,
2013-07-31 21:00:00,58.2,55.2,29.98,WSW,242,0.0,3.0,90,0.00,,,0.00,0,HR-IXPWINDi_r2_v1.2.,2013-08-01 04:00:00,
2013-07-31 21:01:00,58.2,55.2,29.98,WSW,242,0.0,3.0,90,0.00,,,0.00,0,HR-IXPWINDi_r2_v1.2.,2013-08-01 04:01:00,
2013-07-31 21:06:00,58.2,55.2,29.98,WSW,242,0.0,3.0,90,0.00,,,0.00,0,HR-IXPWINDi_r2_v1.2.,2013-08-01 04:06:00,
2013-07-31 21:11:00,58.3,55.6,29.98,WSW,242,0.0,3.0,91,0.00,,,0.00,0,HR-IXPWINDi_r2_v1.2.,2013-08-01 04:11:00,
2013-07-31 21:16:00,58.4,55.7,29.99,WSW,242,0.0,1.0,91,0.00,,,0.00,0,HR-IXPWINDi_r2_v1.2.,2013-08-01 04:16:00,
2013-07-31 21:21:00,58.5,55.8,29.99,WSW,242,0.0,1.0,91,0.00,,,0.00,0,HR-IXPWINDi_r2_v1.2.,2013-08-01 04:21:00,
2013-07-31 21:26:00,58.6,55.9,29.99,WSW,242,1.0,2.0,91,0.00,,,0.00,0,HR-IXPWINDi_r2_v1.2.,2013-08-01 04:26:00,
2013-07-31 21:31:00,58.7,56.0,29.99,WSW,242,0.0,2.0,91,0.00,,,0.00,0,HR-IXPWINDi_r2_v1.2.,2013-08-01 04:31:00,
2013-07-31 21:37:00,58.7,56.0,29.99,WSW,242,1.0,2.0,91,0.00,,,0.00,0,HR-IXPWINDi_r2_v1.2.,2013-08-01 04:37:00,
2013-07-31 21:42:00,58.7,56.0,29.99,WSW,242,2.0,3.0,91,0.00,,,0.00,0,HR-IXPWINDi_r2_v1.2.,2013-08-01 04:42:00,
2013-07-31 21:47:00,58.6,55.9,29.99,West,281,2.0,4.0,91,0.00,,,0.00,0,HR-IXPWINDi_r2_v1.2.,2013-08-01 04:47:00,
2013-07-31 21:52:00,58.5,55.8,29.99,West,281,1.0,4.0,91,0.00,,,0.00,0,HR-IXPWINDi_r2_v1.2.,2013-08-01 04:52:00,
2013-07-31 21:57:00,58.6,55.9,29.99,West,281,0.0,2.0,91,0.00,,,0.00,0,HR-IXPWINDi_r2_v1.2.,2013-08-01 04:57:00,
2013-07-31 22:02:00,58.7,56.0,29.99,West,281,0.0,2.0,91,0.00,,,0.00,0,HR-IXPWINDi_r2_v1.2.,2013-08-01 05:02:00,
2013-07-31 22:07:00,58.7,56.0,29.99,West,281,0.0,2.0,91,0.00,,,0.00,0,HR-IXPWINDi_r2_v1.2.,2013-08-01 05:07:00,
2013-07-31 22:13:00,58.6,55.9,29.99,West,281,1.0,2.0,91,0.00,,,0.00,0,HR-IXPWINDi_r2_v1.2.,2013-08-01 05:13:00,
2013-07-31 22:18:00,58.5,55.8,29.99,West,281,0.0,2.0,91,0.00,,,0.00,0,HR-IXPWINDi_r2_v1.2.,2013-08-01 05:18:00,
2013-07-31 22:23:00,58.5,55.8,29.98,West,281,0.0,2.0,91,0.00,,,0.00,0,HR-IXPWINDi_r2_v1.2.,2013-08-01 05:23:00,
2013-07-31 22:28:00,58.6,55.9,29.99,West,281,0.0,2.0,91,0.00,,,0.00,0,HR-IXPWINDi_r2_v1.2.,2013-08-01 05:28:00,
2013-07-31 22:33:00,58.6,55.9,29.99,West,281,0.0,2.0,91,0.00,,,0.00,0,HR-IXPWINDi_r2_v1.2.,2013-08-01 05:33:00,
2013-07-31 22:38:00,58.6,55.9,29.99,West,281,0.0,0.0,91,0.00,,,0.00,0,HR-IXPWINDi_r2_v1.2.,2013-08-01 05:38:00,
2013-07-31 22:43:00,58.6,55.9,29.99,WNW,283,0.0,2.0,91,0.00,,,0.00,0,HR-IXPWINDi_r2_v1.2.,2013-08-01 05:43:00,
2013-07-31 22:48:00,58.6,55.9,29.98,WNW,285,0.0,3.0,91,0.00,,,0.00,0,HR-IXPWINDi_r2_v1.2.,2013-08-01 05:48:00,
2013-07-31 22:54:00,58.6,55.9,29.98,WNW,286,2.0,3.0,91,0.00,,,0.00,0,HR-IXPWINDi_r2_v1.2.,2013-08-01 05:54:00,
2013-07-31 23:00:00,58.5,55.5,29.98,WNW,287,0.0,3.0,90,0.00,,,0.00,0,HR-IXPWINDi_r2_v1.2.,2013-08-01 06:00:00,
2013-07-31 23:05:00,58.4,55.4,29.98,NNW,348,3.0,3.0,90,0.00,,,0.00,0,HR-IXPWINDi_r2_v1.2.,2013-08-01 06:05:00,
2013-07-31 23:10:00,58.3,55.3,29.98,North,355,1.0,3.0,90,0.00,,,0.00,0,HR-IXPWINDi_r2_v1.2.,2013-08-01 06:10:00,
2013-07-31 23:15:00,58.3,55.3,29.98,North,355,2.0,3.0,90,0.00,,,0.00,0,HR-IXPWINDi_r2_v1.2.,2013-08-01 06:15:00,
2013-07-31 23:20:00,58.2,55.2,29.98,North,355,1.0,3.0,90,0.00,,,0.00,0,HR-IXPWINDi_r2_v1.2.,2013-08-01 06:20:00,
2013-07-31 23:25:00,58.1,55.1,29.98,North,355,0.0,3.0,90,0.00,,,0.00,0,HR-IXPWINDi_r2_v1.2.,2013-08-01 06:25:00,
2013-07-31 23:30:00,58.0,55.3,29.98,North,355,3.0,3.0,91,0.00,,,0.00,0,HR-IXPWINDi_r2_v1.2.,2013-08-01 06:30:00,
2013-07-31 23:36:00,58.0,55.3,29.98,North,355,0.0,3.0,91,0.00,,,0.00,0,HR-IXPWINDi_r2_v1.2.,2013-08-01 06:36:00,
2013-07-31 23:42:00,57.8,55.1,29.98,North,355,0.0,2.0,91,0.00,,,0.00,0,HR-IXPWINDi_r2_v1.2.,2013-08-01 06:42:00,
2013-07-31 23:47:00,57.7,55.0,29.98,North,355,1.0,3.0,91,0.00,,,0.00,0,HR-IXPWINDi_r2_v1.2.,2013-08-01 06:47:00,
2013-07-31 23:52:00,57.7,55.0,29.98,North,355,1.0,3.0,91,0.00,,,0.00,0,HR-IXPWINDi_r2_v1.2.,2013-08-01 06:52:00,
2013-07-31 23:57:00,57.6,54.9,29.98,North,355,1.0,3.0,91,0.00,,,0.00,0,HR-IXPWINDi_r2_v1.2.,2013-08-01 06:57:00,